Weather reports worldwide

Advertisment
Meierwik, Germany (10033): temperature & dewpoint: 10.08.2018 13:00:00 - 16.08.2018 13:00:00 (CEST)Meierwik, Germany (10033): wind speed & gusts: 10.08.2018 13:00:00 - 16.08.2018 13:00:00 (CEST)Meierwik, Germany (10033): wind direction: 10.08.2018 13:00:00 - 16.08.2018 13:00:00 (CEST)Meierwik, Germany (10033): reduced air pressure: 10.08.2018 13:00:00 - 16.08.2018 13:00:00 (CEST)Meierwik, Germany (10033): visibility: 10.08.2018 13:00:00 - 16.08.2018 13:00:00 (CEST)
Date & Time tt [°C] td [°C] ff [km/h] ff [kn] fx [km/h] fx [kn] dd ppp [hPa] vv [km]
16.08.2018 13:00:00 22,9 13,7 32 18 54 29 SSW 1013,8 20
16.08.2018 12:00:00 22,3 14,2 29 16 58 31 SSW 1013,9 10
16.08.2018 11:00:00 20,6 14,5 18 10 - - SW 1014,4 7
16.08.2018 10:00:00 20,0 15,5 18 10 - - SSW 1014,8 7
16.08.2018 09:00:00 19,2 16,0 18 10 - - S 1015,0 6
16.08.2018 08:00:00 18,4 15,9 18 10 - - S 1015,3 6
16.08.2018 07:00:00 17,6 15,8 18 10 - - S 1015,4 5
16.08.2018 06:00:00 17,2 15,9 22 12 - - S 1015,5 4,5
16.08.2018 05:00:00 17,2 15,8 16 9 - - SSW 1015,8 6
16.08.2018 04:00:00 17,3 15,4 14 8 - - S 1016,0 10
16.08.2018 03:00:00 17,8 15,6 13 7 - - SSW 1016,3 10
16.08.2018 02:00:00 17,3 15,2 14 8 - - SSW 1016,5 18
16.08.2018 01:00:00 18,1 15,2 14 8 - - SSW 1016,8 18
16.08.2018 00:00:00 18,6 15,1 14 8 - - SSW 1016,7 18
15.08.2018 23:00:00 18,4 14,9 14 8 - - SSW 1016,8 18
15.08.2018 22:00:00 17,4 15,3 11 6 - - S 1017,0 18
15.08.2018 21:00:00 18,5 14,9 7 4 - - WSW 1016,9 20
15.08.2018 20:00:00 20,3 15,1 11 6 - - W 1016,7 20
15.08.2018 19:00:00 20,4 14,9 22 12 - - W 1016,7 15
15.08.2018 18:00:00 20,7 14,9 25 14 - - W 1016,5 15
15.08.2018 17:00:00 20,8 15,6 25 14 - - WNW 1016,4 15
15.08.2018 16:00:00 21,9 15,5 29 16 - - W 1016,4 15
15.08.2018 15:00:00 21,8 16,1 29 16 47 25 W 1016,3 15
15.08.2018 14:00:00 21,6 15,2 36 19 - - W 1016,2 15
15.08.2018 13:00:00 22,1 15,3 32 18 47 25 W 1015,7 15
15.08.2018 12:00:00 20,7 16,6 25 14 - - W 1015,7 15
15.08.2018 11:00:00 19,9 15,8 18 10 - - WSW 1015,6 15
15.08.2018 10:00:00 19,0 15,5 22 12 - - W 1015,3 15
15.08.2018 09:00:00 18,9 15,5 14 8 - - W 1014,8 15
15.08.2018 08:00:00 17,0 15,0 14 8 - - W 1014,6 15
15.08.2018 07:00:00 16,0 14,6 11 6 - - W 1014,4 15
15.08.2018 06:00:00 16,2 14,9 24 13 - - W 1014,2 5
15.08.2018 05:00:00 16,7 13,2 14 8 - - W 1014,1 20
15.08.2018 04:00:00 16,9 13,5 22 12 - - W 1014,2 20
15.08.2018 03:00:00 16,9 14,0 22 12 - - W 1014,0 20
15.08.2018 02:00:00 17,3 14,4 25 14 - - WNW 1013,7 20
15.08.2018 01:00:00 17,3 14,6 22 12 - - NW 1013,4 20
15.08.2018 00:00:00 17,8 15,2 29 16 - - NW 1012,8 20
14.08.2018 23:00:00 18,3 15,8 36 19 - - NW 1012,1 20
14.08.2018 22:00:00 18,8 16,4 22 12 - - W 1011,6 25
14.08.2018 21:00:00 19,5 15,2 18 10 - - WNW 1011,2 25
14.08.2018 20:00:00 20,0 15,1 18 10 - - NW 1010,6 30
14.08.2018 19:00:00 20,9 14,7 29 16 - - NW 1010,2 30
14.08.2018 18:00:00 21,9 14,1 32 18 50 27 WNW 1009,7 25
14.08.2018 17:00:00 22,0 14,1 32 18 - - NW 1009,2 25
14.08.2018 16:00:00 21,9 14,5 36 19 - - NW 1008,7 25
14.08.2018 15:00:00 22,0 14,2 36 19 50 27 NW 1008,1 18
14.08.2018 14:00:00 23,0 15,7 25 14 - - NW 1007,4 12
14.08.2018 13:00:00 21,7 16,0 22 12 - - WNW 1007,2 9
14.08.2018 12:00:00 20,8 16,6 22 12 - - WNW 1006,6 7
14.08.2018 11:00:00 20,1 16,6 22 12 - - WNW 1006,2 7
14.08.2018 10:00:00 18,9 16,4 25 14 - - WNW 1005,8 6
14.08.2018 09:00:00 18,4 17,0 22 12 - - W 1005,3 6
14.08.2018 08:00:00 17,2 15,9 18 10 - - WSW 1004,8 5
14.08.2018 07:00:00 16,7 15,6 14 8 - - SW 1004,5 3,5
14.08.2018 06:00:00 16,2 15,6 7 4 - - SW 1004,3 3,5
14.08.2018 05:00:00 16,3 15,5 11 6 - - SW 1004,3 4,0
14.08.2018 04:00:00 16,3 15,5 11 6 - - SSW 1004,2 6
14.08.2018 03:00:00 16,0 15,2 14 8 - - S 1004,5 8
14.08.2018 02:00:00 15,9 15,0 14 8 - - S 1004,6 8
14.08.2018 01:00:00 16,2 15,2 18 10 - - S 1004,6 10
14.08.2018 00:00:00 16,5 15,5 14 8 - - S 1004,7 7
13.08.2018 23:00:00 17,0 15,7 14 8 - - SSE 1004,2 7
13.08.2018 22:00:00 18,9 15,8 18 10 - - SSE 1004,4 20
13.08.2018 21:00:00 19,2 15,8 14 8 - - ESE 1004,2 20
13.08.2018 20:00:00 19,7 15,9 14 8 - - ESE 1004,3 20
13.08.2018 19:00:00 19,0 15,4 14 8 - - ESE 1004,7 20
13.08.2018 18:00:00 19,6 13,9 18 10 - - SE 1005,3 15
13.08.2018 17:00:00 19,8 15,0 18 10 - - ESE 1005,1 15
13.08.2018 16:00:00 19,8 16,2 18 10 - - ESE 1005,5 15
13.08.2018 15:00:00 20,2 15,4 18 10 - - SE 1006,2 15
13.08.2018 14:00:00 20,7 15,3 14 8 - - ESE 1006,2 15
13.08.2018 13:00:00 19,5 15,4 18 10 - - SE 1006,4 15
13.08.2018 12:00:00 19,3 15,6 18 10 - - ESE 1006,7 15
13.08.2018 11:00:00 19,0 15,5 7 4 - - E 1006,9 15
13.08.2018 10:00:00 17,2 15,7 11 6 - - SE 1007,2 15
13.08.2018 09:00:00 16,0 14,7 11 6 - - SSE 1007,2 9
13.08.2018 08:00:00 15,8 14,7 11 6 - - SSE 1007,2 8
13.08.2018 07:00:00 15,5 14,6 14 8 - - SSE 1007,3 8
13.08.2018 06:00:00 15,4 14,6 14 8 - - SSE 1007,5 8
13.08.2018 05:00:00 15,5 14,7 14 8 - - SSE 1008,0 15
13.08.2018 04:00:00 15,7 14,9 11 6 - - S 1008,5 15
13.08.2018 03:00:00 15,8 14,9 14 8 - - S 1008,6 15
13.08.2018 02:00:00 16,3 14,9 14 8 - - SSW 1009,1 10
13.08.2018 01:00:00 16,5 14,9 18 10 - - SSW 1009,3 6
13.08.2018 00:00:00 16,6 15,0 18 10 - - SW 1009,6 6
12.08.2018 23:00:00 16,5 15,0 18 10 - - SSW 1009,9 6
12.08.2018 22:00:00 16,4 14,8 22 12 - - SSW 1010,2 6
12.08.2018 21:00:00 15,6 14,5 22 12 - - S 1010,5 6
12.08.2018 20:00:00 15,2 14,3 7 4 - - S 1010,9 6
12.08.2018 19:00:00 15,0 14,0 11 6 - - SSE 1011,2 6
12.08.2018 18:00:00 14,5 13,6 14 8 - - SSE 1012,0 4,5
12.08.2018 17:00:00 14,3 12,6 14 8 - - S 1013,1 5
12.08.2018 16:00:00 14,3 12,3 7 4 - - S 1014,0 6
12.08.2018 15:00:00 15,7 11,5 22 12 - - WSW 1014,7 10
12.08.2018 14:00:00 17,1 11,2 18 10 - - SW 1014,8 12
12.08.2018 13:00:00 18,0 10,5 14 8 - - SW 1014,9 30
12.08.2018 12:00:00 18,0 11,5 11 6 - - SW 1015,2 30
12.08.2018 11:00:00 17,9 11,9 18 10 - - WSW 1015,3 30
12.08.2018 10:00:00 16,8 11,5 14 8 - - SW 1015,5 30
12.08.2018 09:00:00 15,6 11,3 14 8 - - SSW 1015,7 30
12.08.2018 08:00:00 14,8 11,3 18 10 - - SW 1016,0 30
12.08.2018 07:00:00 13,8 11,5 18 10 - - SW 1016,0 30
12.08.2018 06:00:00 13,2 10,9 14 8 - - SSW 1016,1 30
12.08.2018 05:00:00 13,1 10,6 18 10 - - SW 1016,3 30
12.08.2018 04:00:00 12,6 10,8 11 6 - - WSW 1016,9 30
12.08.2018 03:00:00 11,8 10,1 14 8 - - W 1017,1 30
12.08.2018 02:00:00 12,4 10,2 14 8 - - WSW 1017,5 30
12.08.2018 01:00:00 13,8 10,8 22 12 - - WNW 1017,8 30
12.08.2018 00:00:00 14,8 11,0 22 12 - - W 1017,9 30
11.08.2018 23:00:00 14,0 11,2 18 10 - - W 1018,0 30
11.08.2018 22:00:00 15,3 11,0 25 14 - - W 1017,8 25
11.08.2018 21:00:00 15,6 12,5 25 14 - - WNW 1017,3 20
11.08.2018 20:00:00 15,3 12,1 29 16 - - WNW 1017,1 20
11.08.2018 19:00:00 17,0 10,2 42 23 76 41 NW 1016,8 6
11.08.2018 18:00:00 18,1 11,7 43 23 68 37 NW 1015,8 -
11.08.2018 17:00:00 17,0 11,8 40 21 - - NW 1015,5 -
11.08.2018 16:00:00 15,1 12,5 50 27 68 37 WNW 1014,8 -
11.08.2018 15:00:00 15,2 13,0 36 19 79 43 W 1014,4 -
11.08.2018 14:00:00 16,9 12,7 40 21 - - W 1013,9 -
11.08.2018 13:00:00 15,8 11,6 36 19 50 27 W 1014,0 -
11.08.2018 12:00:00 14,0 11,2 29 16 54 29 SSW 1013,8 -
11.08.2018 11:00:00 15,5 12,0 25 14 - - SW 1013,9 -
11.08.2018 10:00:00 16,6 11,3 25 14 50 27 SSW 1013,8 -
11.08.2018 09:00:00 14,7 11,9 25 14 - - SSW 1014,2 -
11.08.2018 08:00:00 13,3 10,8 25 14 - - SSW 1014,3 -
11.08.2018 07:00:00 13,2 10,2 22 12 - - SSW 1014,5 -
11.08.2018 06:00:00 14,3 10,3 22 12 - - SW 1014,6 -
11.08.2018 05:00:00 14,9 9,8 22 12 - - S 1014,8 -
11.08.2018 04:00:00 14,7 9,9 18 10 - - S 1015,5 -
11.08.2018 03:00:00 14,9 9,9 22 12 - - SSE 1015,5 -
11.08.2018 02:00:00 13,7 10,3 29 16 - - SSE 1016,1 -
11.08.2018 01:00:00 13,7 10,2 22 12 - - S 1017,5 -
11.08.2018 00:00:00 14,3 10,5 22 12 - - S 1018,0 -
10.08.2018 23:00:00 14,7 10,5 22 12 - - S 1018,4 -
10.08.2018 22:00:00 16,0 10,3 18 10 - - S 1018,6 -
10.08.2018 21:00:00 17,7 9,7 18 10 - - SW 1018,7 -
10.08.2018 20:00:00 18,0 10,7 25 14 - - WSW 1018,7 -
10.08.2018 19:00:00 19,1 11,2 22 12 47 25 WSW 1018,6 -
10.08.2018 18:00:00 18,6 10,2 29 16 58 31 WSW 1018,8 30
10.08.2018 17:00:00 19,3 8,6 25 14 - - SW 1018,6 30
10.08.2018 16:00:00 19,1 9,0 29 16 54 29 WSW 1018,7 30
10.08.2018 15:00:00 18,6 9,4 32 18 54 29 WSW 1018,3 30
10.08.2018 14:00:00 20,0 9,1 40 21 - - W 1017,7 30
10.08.2018 13:00:00 20,1 9,8 40 21 61 33 W 1016,8 30

tt = temperature
td = dewpoint
ff = wind speed
fx = gusts
dd = wind direction
ppp = reduced air pressure
vv = visibility

Next stations